Time,TemperatureF,DewpointF,PressureIn,WindDirection,WindDirectionDegrees,WindSpeedMPH,WindSpeedGustMPH,Humidity,HourlyPrecipIn,Conditions,Clouds,dailyrainin,SoftwareType,DateUTC
2013-03-31 00:10:00,54.0,39.1,29.72,South,180,4.7,-999.0,57,-99.99,,,0.00,Acu-Link.com,2013-03-31 04:10:00,
2013-03-31 00:25:00,52.2,40.8,29.72,SSW,202,4.2,-999.0,65,-99.99,,,0.00,Acu-Link.com,2013-03-31 04:25:00,
2013-03-31 00:40:00,49.5,41.2,29.71,SSW,202,4.2,-999.0,73,-99.99,,,0.01,Acu-Link.com,2013-03-31 04:40:00,
2013-03-31 00:55:00,48.7,42.2,29.71,South,180,2.7,-999.0,78,-99.99,,,0.02,Acu-Link.com,2013-03-31 04:55:00,
2013-03-31 01:11:00,47.8,44.4,29.70,South,180,2.2,-999.0,88,-99.99,,,0.04,Acu-Link.com,2013-03-31 05:11:00,
2013-03-31 01:56:00,47.5,44.7,29.68,SSW,202,1.7,-999.0,90,-99.99,,,0.12,Acu-Link.com,2013-03-31 05:56:00,
2013-03-31 02:11:00,47.5,44.7,29.67,SSW,202,0.0,-999.0,90,-99.99,,,0.14,Acu-Link.com,2013-03-31 06:11:00,
2013-03-31 02:27:00,47.3,44.5,29.68,West,270,1.7,-999.0,90,-99.99,,,0.18,Acu-Link.com,2013-03-31 06:27:00,
2013-03-31 02:42:00,47.1,44.3,29.65,South,180,0.0,-999.0,90,-99.99,,,0.20,Acu-Link.com,2013-03-31 06:42:00,
2013-03-31 02:57:00,47.1,44.3,29.65,SSW,202,0.0,-999.0,90,-99.99,,,0.21,Acu-Link.com,2013-03-31 06:57:00,
2013-03-31 03:13:00,47.1,44.3,29.63,NE,45,0.0,-999.0,90,-99.99,,,0.22,Acu-Link.com,2013-03-31 07:13:00,
2013-03-31 03:28:00,47.1,44.6,29.63,West,270,0.0,-999.0,91,-99.99,,,0.23,Acu-Link.com,2013-03-31 07:28:00,
2013-03-31 03:43:00,47.1,44.6,29.62,ENE,67,0.0,-999.0,91,-99.99,,,0.24,Acu-Link.com,2013-03-31 07:43:00,
2013-03-31 03:59:00,47.1,44.6,29.61,West,270,0.0,-999.0,91,-99.99,,,0.25,Acu-Link.com,2013-03-31 07:59:00,
2013-03-31 04:14:00,47.1,44.6,29.62,WSW,247,0.0,-999.0,91,-99.99,,,0.26,Acu-Link.com,2013-03-31 08:14:00,
2013-03-31 04:29:00,47.1,44.6,29.61,NNW,337,0.0,-999.0,91,-99.99,,,0.27,Acu-Link.com,2013-03-31 08:29:00,
2013-03-31 04:44:00,47.3,44.8,29.60,SW,225,0.0,-999.0,91,-99.99,,,0.28,Acu-Link.com,2013-03-31 08:44:00,
2013-03-31 04:59:00,47.3,44.8,29.59,South,180,0.0,-999.0,91,-99.99,,,0.31,Acu-Link.com,2013-03-31 08:59:00,
2013-03-31 05:14:00,47.5,45.0,29.59,WSW,247,0.0,-999.0,91,-99.99,,,0.32,Acu-Link.com,2013-03-31 09:14:00,
2013-03-31 05:29:00,48.2,45.7,29.59,SSE,157,2.7,-999.0,91,-99.99,,,0.32,Acu-Link.com,2013-03-31 09:29:00,
2013-03-31 05:45:00,48.4,45.9,29.59,SSW,202,2.2,-999.0,91,-99.99,,,0.32,Acu-Link.com,2013-03-31 09:45:00,
2013-03-31 06:00:00,48.4,45.9,29.58,SSE,157,2.7,-999.0,91,-99.99,,,0.33,Acu-Link.com,2013-03-31 10:00:00,
2013-03-31 06:15:00,48.6,46.1,29.58,SSE,157,3.7,-999.0,91,-99.99,,,0.34,Acu-Link.com,2013-03-31 10:15:00,
2013-03-31 06:30:00,48.6,46.1,29.58,SSW,202,3.7,-999.0,91,-99.99,,,0.34,Acu-Link.com,2013-03-31 10:30:00,
2013-03-31 06:46:00,48.4,45.9,29.58,South,180,3.2,-999.0,91,-99.99,,,0.34,Acu-Link.com,2013-03-31 10:46:00,
2013-03-31 07:01:00,48.4,45.9,29.58,South,180,2.7,-999.0,91,-99.99,,,0.34,Acu-Link.com,2013-03-31 11:01:00,
2013-03-31 07:16:00,48.4,45.9,29.57,SSW,202,3.2,-999.0,91,-99.99,,,0.35,Acu-Link.com,2013-03-31 11:16:00,
2013-03-31 07:31:00,48.4,45.9,29.57,SE,135,3.7,-999.0,91,-99.99,,,0.35,Acu-Link.com,2013-03-31 11:31:00,
2013-03-31 07:47:00,48.4,45.9,29.58,SSW,202,3.7,-999.0,91,-99.99,,,0.35,Acu-Link.com,2013-03-31 11:47:00,
2013-03-31 08:02:00,48.4,45.9,29.57,SSW,202,2.7,-999.0,91,-99.99,,,0.35,Acu-Link.com,2013-03-31 12:02:00,
2013-03-31 08:17:00,48.4,45.9,29.57,South,180,2.7,-999.0,91,-99.99,,,0.35,Acu-Link.com,2013-03-31 12:17:00,
2013-03-31 08:32:00,48.4,45.9,29.57,South,180,2.7,-999.0,91,-99.99,,,0.35,Acu-Link.com,2013-03-31 12:32:00,
2013-03-31 08:47:00,48.7,46.5,29.56,South,180,5.8,-999.0,92,-99.99,,,0.35,Acu-Link.com,2013-03-31 12:47:00,
2013-03-31 09:03:00,49.3,47.1,29.56,SSW,202,5.3,-999.0,92,-99.99,,,0.35,Acu-Link.com,2013-03-31 13:03:00,
2013-03-31 09:18:00,49.5,47.3,29.56,SSW,202,6.3,-999.0,92,-99.99,,,0.36,Acu-Link.com,2013-03-31 13:18:00,
2013-03-31 09:33:00,49.6,47.4,29.57,SSW,202,6.8,-999.0,92,-99.99,,,0.36,Acu-Link.com,2013-03-31 13:33:00,
2013-03-31 09:48:00,49.6,47.4,29.58,South,180,5.3,-999.0,92,-99.99,,,0.37,Acu-Link.com,2013-03-31 13:48:00,
2013-03-31 10:04:00,50.0,47.8,29.57,SSW,202,4.7,-999.0,92,-99.99,,,0.37,Acu-Link.com,2013-03-31 14:04:00,
2013-03-31 10:19:00,50.5,48.3,29.57,SSW,202,4.7,-999.0,92,-99.99,,,0.37,Acu-Link.com,2013-03-31 14:19:00,
2013-03-31 10:34:00,50.9,48.7,29.57,South,180,5.8,-999.0,92,-99.99,,,0.38,Acu-Link.com,2013-03-31 14:34:00,
2013-03-31 10:49:00,50.9,48.7,29.57,WSW,247,5.8,-999.0,92,-99.99,,,0.38,Acu-Link.com,2013-03-31 14:49:00,
2013-03-31 11:04:00,51.4,49.2,29.58,South,180,4.7,-999.0,92,-99.99,,,0.38,Acu-Link.com,2013-03-31 15:04:00,
2013-03-31 11:20:00,52.0,49.7,29.57,South,180,5.3,-999.0,92,-99.99,,,0.38,Acu-Link.com,2013-03-31 15:20:00,
2013-03-31 11:35:00,52.7,50.4,29.56,South,180,5.8,-999.0,92,-99.99,,,0.38,Acu-Link.com,2013-03-31 15:35:00,
2013-03-31 11:50:00,53.6,51.3,29.57,SW,225,6.8,-999.0,92,-99.99,,,0.38,Acu-Link.com,2013-03-31 15:50:00,
2013-03-31 12:05:00,54.7,52.4,29.57,SSW,202,5.8,-999.0,92,-99.99,,,0.38,Acu-Link.com,2013-03-31 16:05:00,
2013-03-31 12:20:00,56.3,54.0,29.57,SSW,202,6.3,-999.0,92,-99.99,,,0.38,Acu-Link.com,2013-03-31 16:20:00,
2013-03-31 12:35:00,58.3,52.2,29.56,SSW,202,6.3,-999.0,80,-99.99,,,0.38,Acu-Link.com,2013-03-31 16:35:00,
2013-03-31 12:51:00,59.2,52.3,29.56,SW,225,7.8,-999.0,78,-99.99,,,0.38,Acu-Link.com,2013-03-31 16:51:00,
2013-03-31 13:06:00,60.1,52.1,29.55,SSW,202,4.2,-999.0,75,-99.99,,,0.38,Acu-Link.com,2013-03-31 17:06:00,
2013-03-31 13:36:00,58.8,50.2,29.55,South,180,7.8,-999.0,73,-99.99,,,0.38,Acu-Link.com,2013-03-31 17:36:00,
2013-03-31 13:51:00,60.1,50.7,29.55,South,180,5.3,-999.0,71,-99.99,,,0.38,Acu-Link.com,2013-03-31 17:51:00,
2013-03-31 14:07:00,61.2,51.3,29.54,South,180,4.7,-999.0,70,-99.99,,,0.38,Acu-Link.com,2013-03-31 18:07:00,
2013-03-31 14:22:00,60.1,50.3,29.54,South,180,5.8,-999.0,70,-99.99,,,0.38,Acu-Link.com,2013-03-31 18:22:00,
2013-03-31 14:37:00,60.4,49.8,29.54,SSW,202,6.8,-999.0,68,-99.99,,,0.38,Acu-Link.com,2013-03-31 18:37:00,
2013-03-31 14:52:00,61.0,49.1,29.54,SSE,157,4.7,-999.0,65,-99.99,,,0.38,Acu-Link.com,2013-03-31 18:52:00,
2013-03-31 15:08:00,61.3,49.4,29.54,WSW,247,8.9,-999.0,65,-99.99,,,0.38,Acu-Link.com,2013-03-31 19:08:00,
2013-03-31 15:23:00,61.9,49.6,29.53,WSW,247,2.7,-999.0,64,-99.99,,,0.38,Acu-Link.com,2013-03-31 19:23:00,
2013-03-31 15:38:00,61.5,49.2,29.53,SSW,202,2.7,-999.0,64,-99.99,,,0.38,Acu-Link.com,2013-03-31 19:38:00,
2013-03-31 15:53:00,60.3,49.7,29.53,ENE,67,6.8,-999.0,68,-99.99,,,0.38,Acu-Link.com,2013-03-31 19:53:00,
2013-03-31 16:09:00,60.1,49.1,29.52,SSW,202,5.3,-999.0,67,-99.99,,,0.38,Acu-Link.com,2013-03-31 20:09:00,
2013-03-31 16:24:00,59.4,48.4,29.53,SSW,202,10.9,-999.0,67,-99.99,,,0.38,Acu-Link.com,2013-03-31 20:24:00,
2013-03-31 16:40:00,58.1,49.1,29.53,SSW,202,4.7,-999.0,72,-99.99,,,0.38,Acu-Link.com,2013-03-31 20:40:00,
2013-03-31 16:55:00,55.0,51.5,29.53,South,180,7.8,-999.0,88,-99.99,,,0.42,Acu-Link.com,2013-03-31 20:55:00,
2013-03-31 17:26:00,54.3,51.4,29.52,SW,225,4.2,-999.0,90,-99.99,,,0.45,Acu-Link.com,2013-03-31 21:26:00,
2013-03-31 17:41:00,54.3,51.4,29.52,SSW,202,5.8,-999.0,90,-99.99,,,0.45,Acu-Link.com,2013-03-31 21:41:00,
2013-03-31 17:56:00,54.1,51.2,29.51,SSW,202,6.3,-999.0,90,-99.99,,,0.45,Acu-Link.com,2013-03-31 21:56:00,
2013-03-31 18:11:00,54.1,51.5,29.52,SE,135,3.7,-999.0,91,-99.99,,,0.45,Acu-Link.com,2013-03-31 22:11:00,
2013-03-31 18:42:00,54.1,51.5,29.53,South,180,3.7,-999.0,91,-99.99,,,0.45,Acu-Link.com,2013-03-31 22:42:00,
2013-03-31 19:12:00,53.8,51.2,29.53,South,180,7.8,-999.0,91,-99.99,,,0.45,Acu-Link.com,2013-03-31 23:12:00,
2013-03-31 19:28:00,53.8,51.2,29.53,SW,225,4.2,-999.0,91,-99.99,,,0.45,Acu-Link.com,2013-03-31 23:28:00,
2013-03-31 19:43:00,53.6,51.0,29.52,SSW,202,3.7,-999.0,91,-99.99,,,0.45,Acu-Link.com,2013-03-31 23:43:00,
2013-03-31 19:58:00,53.6,50.7,29.53,South,180,4.7,-999.0,90,-99.99,,,0.45,Acu-Link.com,2013-03-31 23:58:00,
2013-03-31 20:13:00,53.6,50.7,29.52,SW,225,3.7,-999.0,90,-99.99,,,0.45,Acu-Link.com,2013-04-01 00:13:00,
2013-03-31 20:28:00,53.4,50.2,29.52,SSW,202,4.7,-999.0,89,-99.99,,,0.45,Acu-Link.com,2013-04-01 00:28:00,
2013-03-31 20:43:00,53.4,50.2,29.52,SW,225,3.7,-999.0,89,-99.99,,,0.45,Acu-Link.com,2013-04-01 00:43:00,
2013-03-31 20:58:00,53.4,50.2,29.52,SW,225,4.2,-999.0,89,-99.99,,,0.45,Acu-Link.com,2013-04-01 00:58:00,
2013-03-31 21:13:00,53.4,49.9,29.52,SSW,202,3.7,-999.0,88,-99.99,,,0.45,Acu-Link.com,2013-04-01 01:13:00,
2013-03-31 21:28:00,53.4,49.9,29.52,SSW,202,2.7,-999.0,88,-99.99,,,0.45,Acu-Link.com,2013-04-01 01:28:00,
2013-03-31 21:44:00,53.6,50.1,29.53,South,180,4.2,-999.0,88,-99.99,,,0.45,Acu-Link.com,2013-04-01 01:44:00,
2013-03-31 21:59:00,53.8,50.3,29.53,South,180,5.8,-999.0,88,-99.99,,,0.45,Acu-Link.com,2013-04-01 01:59:00,
2013-03-31 22:14:00,53.8,50.3,29.53,SSW,202,3.2,-999.0,88,-99.99,,,0.45,Acu-Link.com,2013-04-01 02:14:00,
2013-03-31 22:29:00,53.8,50.6,29.53,SW,225,3.2,-999.0,89,-99.99,,,0.45,Acu-Link.com,2013-04-01 02:29:00,
2013-03-31 22:44:00,54.1,50.9,29.53,South,180,4.7,-999.0,89,-99.99,,,0.45,Acu-Link.com,2013-04-01 02:44:00,
2013-03-31 22:59:00,54.1,50.9,29.53,South,180,5.8,-999.0,89,-99.99,,,0.45,Acu-Link.com,2013-04-01 02:59:00,
2013-03-31 23:14:00,54.1,50.9,29.53,SSW,202,3.7,-999.0,89,-99.99,,,0.45,Acu-Link.com,2013-04-01 03:14:00,
2013-03-31 23:30:00,54.0,50.8,29.53,SSW,202,3.7,-999.0,89,-99.99,,,0.45,Acu-Link.com,2013-04-01 03:30:00,
2013-03-31 23:45:00,54.0,50.8,29.52,South,180,6.3,-999.0,89,-99.99,,,0.45,Acu-Link.com,2013-04-01 03:45:00,